Theta_e
299 300 300 300 300 301 301 301 301 301 301 301 301 301 302 302 303 304 304 304 304 304 304 303 304 303 304 304 304 304 304 305 305 304 304 304 304 305 307 307 307 306 306 305 305 306 306 306 307 308 309 308 308 307 308 309 308 311 313 310 309 309 308 307 306 307 306 306 306 305 305 305 305 305 304 304 304 304 304 303 304 304 304 305 305 304 304 304
299 300 300 300 301 301 301 301 301 301 301 301 301 301 301 302 302 303 304 304 304 304 304 304 304 304 304 304 305 304 304 304 304 303 303 303 303 305 306 306 306 305 305 305 305 305 306 306 306 307 307 307 306 307 307 307 306 309 311 310 308 308 306 305 305 305 305 306 305 305 305 305 304 304 304 304 304 303 304 304 303 304 304 304 304 304 304 304
300 300 300 300 301 301 301 301 301 301 301 301 301 301 302 302 302 303 303 304 304 304 305 304 304 305 305 306 307 307 305 305 304 303 303 303 304 305 306 307 306 305 305 305 305 305 305 305 306 306 306 305 305 306 306 306 306 304 308 312 308 305 305 304 305 305 305 305 305 305 305 304 304 304 304 304 304 304 303 303 303 304 304 304 304 304 304 304
299 300 300 300 300 301 301 301 301 301 301 301 301 301 302 302 303 303 303 303 304 304 304 305 305 306 306 307 309 308 307 305 302 302 303 303 304 304 305 306 307 306 305 305 305 305 305 305 306 306 305 305 304 305 304 305 306 304 307 311 306 304 306 305 305 305 305 305 305 305 305 305 304 304 304 304 306 306 303 303 303 304 304 304 304 304 304 304
300 300 300 300 300 301 301 300 300 301 301 301 301 301 301 302 303 303 303 304 304 304 305 305 305 306 307 307 308 308 309 306 301 302 303 303 304 304 305 306 306 306 305 305 305 305 306 306 306 305 304 303 304 305 304 303 305 304 305 307 304 304 306 305 304 305 304 304 304 305 305 305 304 304 304 304 306 305 303 303 303 304 304 304 304 304 304 304
300 300 300 300 300 300 300 300 300 301 301 301 301 301 301 302 302 303 304 304 304 304 304 304 304 305 307 308 308 307 307 304 301 302 304 304 304 304 305 305 306 306 305 306 306 306 306 305 305 305 304 303 303 304 304 304 304 304 305 304 304 305 305 305 304 304 304 304 304 304 305 305 304 304 304 304 304 304 303 303 304 304 304 304 304 304 304 303
300 300 300 300 300 300 300 300 301 301 301 301 301 301 301 301 302 302 303 303 303 303 303 303 303 303 305 306 306 305 303 301 301 303 304 304 304 304 305 305 305 306 306 306 306 306 306 306 306 304 304 304 304 304 304 304 304 305 306 304 304 305 304 304 304 305 305 304 304 304 305 305 305 304 304 304 304 303 303 304 304 304 304 304 304 303 302 302
300 300 300 300 300 300 300 301 301 301 301 301 301 301 301 302 302 302 302 303 303 304 304 304 303 303 304 305 305 304 301 300 302 304 304 304 304 305 305 305 305 305 306 306 306 306 306 306 306 305 305 305 305 304 304 305 304 305 306 304 305 305 305 304 304 305 305 304 304 305 305 305 305 305 304 304 304 303 303 304 304 304 304 303 302 301 301 301
300 300 300 300 300 301 301 301 301 301 301 301 302 301 301 302 302 302 303 303 304 305 305 305 305 304 305 305 305 303 300 301 303 304 304 304 305 305 305 305 306 306 305 306 306 306 306 306 305 306 306 304 305 304 304 306 306 305 305 305 304 304 304 304 304 305 305 305 304 305 304 304 305 305 305 304 303 303 303 304 303 303 303 301 301 300 300 301
301 301 301 301 301 301 301 301 301 301 302 302 302 302 302 302 302 303 303 303 304 304 304 305 305 305 306 305 304 303 301 301 303 304 304 304 305 305 306 306 306 307 307 306 307 306 306 306 306 306 306 305 305 304 305 306 306 304 304 304 305 305 305 304 305 305 305 305 304 305 304 304 305 305 306 305 303 304 303 303 303 302 301 300 300 300 301 300
301 301 301 301 301 302 302 302 302 302 302 302 302 302 303 303 303 303 303 304 304 304 304 304 305 306 307 305 303 301 301 302 303 304 304 305 305 305 306 306 306 307 307 307 307 306 306 307 306 307 307 306 305 305 305 304 305 305 304 305 305 305 305 305 305 305 305 304 304 304 303 304 304 305 307 305 304 304 303 303 302 302 301 301 301 301 302 301
302 302 302 302 302 302 302 302 302 302 302 303 303 303 303 303 304 304 304 304 304 305 305 305 306 306 307 304 301 301 301 302 303 303 304 304 305 306 306 306 307 307 308 308 307 307 307 306 307 308 307 305 305 305 305 304 305 304 305 307 305 306 307 305 305 305 304 304 305 304 304 307 307 306 306 305 304 304 303 303 302 302 301 301 301 302 302 300
302 302 302 302 302 302 302 302 302 303 303 303 304 304 304 304 304 305 305 305 305 305 305 306 305 307 307 304 301 301 301 302 302 303 303 304 305 305 306 306 307 307 307 308 308 309 308 307 307 306 305 305 305 305 306 304 305 305 305 307 308 310 309 305 304 305 305 305 305 303 306 311 309 306 305 305 304 303 303 302 302 302 302 302 302 301 300 298
302 302 302 302 303 303 303 303 303 303 303 304 304 304 305 305 306 306 306 305 306 306 306 306 306 307 306 303 302 302 302 302 302 303 303 304 304 305 305 306 306 306 306 306 306 307 308 309 308 307 306 305 304 305 307 306 304 305 306 308 309 311 310 306 304 305 305 305 304 304 307 311 308 305 305 305 303 303 303 302 302 302 301 301 301 300 299 297
302 302 302 303 303 303 303 303 304 304 304 304 304 305 305 305 306 306 306 306 306 306 306 306 306 307 305 303 303 303 303 303 303 303 304 304 304 305 305 305 305 306 306 305 306 306 306 308 307 306 305 305 306 308 311 311 309 308 308 312 311 309 309 307 304 304 304 304 303 305 309 311 308 305 305 304 304 303 302 302 302 302 301 301 300 299 298 297
302 303 303 303 303 304 304 304 304 304 304 305 305 305 305 305 306 306 306 306 306 306 306 306 306 306 305 303 303 303 304 304 304 304 305 305 305 305 305 305 305 305 305 306 306 306 306 306 305 303 302 304 306 308 313 314 313 309 307 311 312 309 307 307 305 303 303 303 303 303 307 310 307 305 304 303 303 303 302 302 302 302 301 300 300 298 298 298
303 303 303 303 304 304 304 304 304 304 304 305 305 305 306 306 306 306 306 306 306 306 306 306 306 306 305 303 303 303 303 303 304 304 305 305 305 305 306 305 305 305 305 305 305 305 305 304 304 302 300 301 301 306 314 314 311 310 308 309 310 307 306 306 305 303 302 302 303 304 306 308 306 303 303 303 303 303 302 302 301 302 301 300 299 298 298 298
303 303 304 304 304 304 304 304 304 305 304 305 305 305 305 306 306 306 306 306 306 306 306 306 306 308 306 303 303 303 303 303 304 304 305 305 305 305 306 306 306 306 305 304 304 304 304 302 303 302 300 300 300 304 310 309 307 309 308 309 309 306 305 305 304 303 302 303 305 306 306 306 304 302 303 303 303 303 303 302 302 301 301 300 300 299 298 297
303 304 304 304 304 304 304 304 305 305 305 305 305 305 305 305 305 305 305 305 306 306 305 305 305 306 305 303 303 303 303 303 304 304 305 306 306 305 305 305 306 305 306 306 303 302 302 301 302 304 302 301 301 301 303 304 305 307 306 307 308 307 305 303 302 303 302 304 306 306 305 305 305 304 303 303 303 303 303 302 302 301 301 301 300 299 298 296
304 304 304 304 304 304 304 304 305 305 306 307 307 308 307 307 307 306 305 305 304 303 303 303 303 303 303 303 304 304 304 304 304 305 305 306 306 306 305 305 305 304 304 305 304 300 300 302 302 302 302 301 301 301 301 302 302 303 304 306 307 305 303 301 301 302 302 305 308 306 305 304 306 305 302 302 303 302 302 302 302 302 301 301 300 299 298 296
304 304 304 304 304 304 304 305 305 305 306 307 307 308 308 308 309 307 304 304 303 303 303 304 303 304 304 304 304 304 305 305 305 306 306 306 306 307 305 303 304 304 301 301 303 301 300 302 301 300 301 300 299 300 301 302 302 303 305 308 308 304 301 300 301 302 301 305 310 308 305 306 306 304 301 302 303 302 303 303 302 302 301 301 300 299 298 297
304 304 304 304 304 304 305 304 305 305 305 305 305 306 307 307 308 307 305 305 304 304 304 304 304 304 304 305 305 304 305 306 306 306 306 306 306 306 304 302 303 303 299 302 307 306 303 302 301 300 299 298 300 301 302 302 304 306 307 309 307 302 302 304 303 303 301 304 311 307 304 308 308 303 301 301 303 303 303 303 303 303 302 301 300 298 297 297
304 304 304 304 304 304 304 305 305 305 305 304 305 306 306 306 306 306 306 305 304 304 305 304 305 304 304 305 305 305 304 304 304 305 305 306 306 306 303 302 305 305 301 303 307 307 305 303 300 299 298 300 304 305 302 302 304 306 307 307 305 302 303 305 304 302 301 303 306 304 306 310 309 306 304 302 302 303 302 303 302 303 302 301 300 299 297 296
304 304 304 304 304 304 305 305 304 305 304 304 304 304 305 305 306 306 304 303 303 304 305 305 304 305 305 304 305 305 304 303 303 304 304 305 305 306 303 302 307 307 302 303 305 304 303 301 299 299 300 302 305 305 302 302 303 305 306 305 303 303 302 302 303 302 303 304 302 303 310 315 311 309 307 303 303 303 303 303 303 303 302 301 300 299 298 297
304 304 304 304 304 304 305 304 305 305 304 304 304 303 304 303 305 305 305 308 306 303 305 305 304 305 304 304 305 305 304 304 303 304 304 303 304 306 303 302 306 307 305 304 305 305 303 300 299 303 306 306 306 304 300 300 304 307 307 304 302 303 303 302 303 304 309 310 303 302 311 318 314 310 308 306 305 304 303 302 303 303 303 302 301 300 299 298
304 304 304 304 305 305 305 305 305 305 304 305 303 304 304 303 304 304 307 317 312 302 305 306 304 305 305 304 305 305 307 306 303 303 303 303 303 305 306 304 303 304 302 301 302 302 301 299 299 303 307 307 306 303 299 298 303 306 304 303 303 302 301 300 302 307 311 310 304 303 308 312 313 312 308 307 307 307 304 301 302 303 303 302 302 301 299 299
304 305 304 305 305 305 305 305 304 305 305 304 303 304 303 303 304 302 310 323 314 302 304 306 304 304 304 304 304 306 308 306 305 304 303 304 303 303 307 305 304 303 298 301 308 303 300 301 302 304 306 306 304 302 300 298 301 305 304 303 302 300 299 299 303 307 306 306 306 306 305 305 310 314 309 305 306 309 307 304 302 303 304 303 302 301 300 299
305 304 304 305 304 305 305 305 305 305 304 304 304 303 304 304 303 304 314 319 308 302 304 304 304 304 304 305 304 304 305 304 305 305 303 303 304 303 305 303 304 303 298 305 314 303 298 302 302 303 305 305 303 301 299 298 301 304 301 299 299 299 299 300 305 307 304 307 312 309 304 305 311 313 308 305 307 308 308 306 303 303 304 304 303 302 301 300
304 304 305 304 304 305 305 304 305 304 304 304 303 303 305 304 302 310 321 313 302 303 304 303 305 304 303 305 304 303 303 303 303 304 303 303 303 303 304 302 301 302 300 303 308 301 299 300 298 300 303 302 301 300 297 298 301 301 298 299 301 301 302 303 304 306 306 310 312 307 304 305 312 313 307 306 307 306 305 305 303 303 304 304 303 302 302 301
304 304 304 304 305 305 304 305 305 304 304 303 303 304 304 307 313 321 320 308 301 302 303 303 304 302 302 306 307 303 301 303 302 303 304 302 303 302 302 302 301 304 305 304 304 302 298 298 298 300 300 298 299 299 297 297 299 299 300 303 304 303 304 305 303 303 309 313 310 306 303 302 309 313 308 304 304 303 304 305 304 303 304 304 303 302 302 302
304 304 304 305 305 304 305 305 305 305 304 303 304 304 303 311 322 324 309 302 302 303 303 304 302 302 304 305 305 303 302 303 301 303 305 303 301 301 302 303 303 310 315 309 307 305 300 301 301 299 298 298 299 301 300 298 297 299 303 304 306 309 307 308 308 307 312 313 308 306 303 300 306 311 307 303 303 301 301 303 304 304 303 303 303 303 302 301
304 304 304 305 304 305 305 304 306 306 304 305 304 304 311 317 318 313 305 304 304 303 303 303 301 303 305 305 303 302 303 305 301 301 303 303 301 299 299 301 302 312 318 310 307 309 306 303 300 299 299 298 301 304 305 304 302 302 304 305 311 315 311 312 314 312 313 311 307 304 302 302 306 308 305 304 304 301 299 300 302 303 303 302 302 302 302 301
304 304 305 305 304 305 305 304 307 306 306 308 304 308 323 325 311 304 306 308 302 299 300 301 301 301 304 307 306 302 303 304 302 300 300 303 304 301 299 297 298 307 313 308 306 309 312 308 302 302 301 298 300 303 304 306 305 303 303 305 312 313 311 314 312 309 311 311 305 301 301 306 308 306 305 304 302 301 299 299 301 302 302 302 302 301 301 301
304 305 305 305 305 305 305 305 305 306 308 308 305 315 326 317 306 302 305 306 300 298 299 300 302 303 303 305 303 300 304 303 301 303 304 306 308 306 301 298 298 302 306 307 305 305 312 314 307 304 301 299 300 299 299 300 302 302 301 304 309 308 309 312 310 309 311 309 305 303 304 308 308 305 304 301 298 300 300 300 300 301 301 301 301 300 300 300
304 305 304 305 305 305 306 306 305 307 309 308 312 323 321 308 305 306 305 304 301 300 300 299 305 310 308 308 302 298 302 303 302 305 307 306 305 303 301 299 297 299 303 307 305 302 308 313 307 301 298 298 299 298 296 299 302 303 302 304 306 305 306 308 306 305 305 304 307 308 307 306 305 303 300 298 298 299 300 301 300 300 300 300 300 300 300 300
304 305 305 306 306 305 306 306 306 308 307 310 318 319 310 304 304 307 306 304 302 302 301 302 308 314 313 312 309 303 301 302 303 306 305 302 301 300 300 299 297 297 301 304 304 302 307 311 307 301 299 297 297 297 296 298 303 305 304 303 300 299 303 306 304 303 301 304 309 307 306 307 305 303 300 300 301 301 300 300 301 302 301 300 300 300 300 300
305 305 305 306 306 306 307 305 307 308 305 313 321 310 301 298 299 302 303 302 300 299 305 309 307 306 309 311 312 308 303 302 305 309 306 302 302 301 300 299 297 295 297 299 301 301 302 308 307 302 301 299 295 297 298 296 298 305 306 300 296 299 303 304 304 305 305 309 309 305 306 306 306 308 307 304 303 303 301 300 301 301 301 301 300 300 300 300
305 306 305 306 306 306 307 306 307 308 305 312 316 305 297 297 297 298 299 299 300 301 308 312 304 300 305 308 308 305 305 307 308 308 307 305 304 300 299 301 297 295 295 296 300 300 299 307 308 301 301 301 296 298 303 300 297 299 299 297 299 304 306 304 305 307 307 308 307 305 306 305 306 310 309 304 302 304 303 301 300 300 300 300 300 300 300 300
305 306 305 306 306 305 307 307 306 307 309 315 315 306 298 297 297 297 298 299 300 304 307 306 302 301 302 303 305 303 303 306 305 305 305 305 304 300 298 299 297 296 295 295 299 300 298 305 310 303 299 300 300 301 305 305 301 299 300 300 302 305 304 303 304 305 307 307 306 305 306 308 310 309 306 302 302 304 305 301 299 299 300 300 300 300 299 299
306 306 306 305 306 306 306 307 306 308 313 311 308 302 297 298 298 296 297 299 298 302 305 303 302 304 303 301 301 300 302 303 302 303 303 301 302 301 297 296 297 296 295 295 297 298 299 303 307 306 302 302 304 303 302 303 302 303 305 304 303 303 302 302 303 302 304 306 305 304 305 307 308 306 304 303 301 302 302 299 298 300 300 300 300 300 300 299
306 307 307 305 306 306 306 308 305 303 306 304 299 297 296 298 298 295 297 299 297 298 301 301 301 303 303 303 301 298 302 305 303 302 303 301 301 302 297 295 296 295 296 298 298 297 300 302 303 305 305 305 304 299 298 300 299 300 303 302 303 304 304 305 305 303 302 303 303 302 303 305 304 303 302 300 299 299 299 298 298 300 300 300 300 300 300 299
306 307 307 305 307 305 306 309 300 296 303 304 299 298 299 298 298 297 297 297 298 297 298 299 299 301 302 302 301 299 301 305 304 302 302 301 301 301 297 295 296 295 296 299 298 295 298 300 301 303 304 303 300 295 294 295 295 297 298 299 302 303 302 305 306 304 301 301 301 300 301 305 304 300 298 298 297 298 299 298 299 300 300 300 300 300 300 299
306 306 306 306 307 305 307 309 301 297 300 299 296 297 298 297 297 298 297 297 298 298 299 300 299 300 300 298 299 301 300 303 304 301 303 302 299 299 297 295 295 295 296 299 297 296 298 300 301 303 304 302 298 295 293 292 294 297 298 298 300 301 301 303 305 304 301 301 302 301 303 308 305 298 296 298 298 298 300 299 299 299 299 300 301 300 300 299
305 305 305 306 306 306 310 312 310 305 299 296 296 297 297 296 296 297 296 297 298 298 300 301 298 298 297 295 298 299 297 302 304 300 300 302 299 297 296 295 295 295 296 298 298 296 299 303 302 304 308 309 306 304 302 299 299 300 300 300 299 299 299 301 302 302 301 302 303 303 306 311 306 299 298 299 299 299 299 300 299 299 299 300 301 300 300 299
306 307 305 305 306 306 308 308 309 307 302 300 300 299 299 298 297 297 296 296 297 297 299 300 298 296 295 293 297 296 293 298 303 300 298 300 299 297 295 295 295 295 296 296 295 295 299 302 302 304 308 311 312 312 308 305 302 301 300 300 299 299 299 299 301 302 302 301 300 302 308 310 305 303 301 299 298 299 299 299 300 299 299 300 300 300 300 300
306 308 307 306 305 305 304 302 302 304 303 305 303 299 300 301 298 296 296 297 297 296 298 298 296 296 296 296 302 305 298 294 296 299 301 303 302 297 294 295 294 295 296 294 294 296 298 298 299 302 306 306 307 307 303 301 300 299 299 299 299 299 298 298 300 302 301 300 300 301 304 304 302 302 302 300 299 299 298 298 299 299 300 300 300 300 300 300
306 306 306 306 307 305 303 301 301 301 302 306 305 301 302 303 299 296 296 296 297 296 296 297 295 298 300 301 306 310 303 297 295 298 301 302 300 296 293 294 294 295 295 293 294 297 299 298 298 299 301 300 300 300 299 298 298 297 298 298 297 298 298 298 299 300 300 301 303 302 299 300 301 301 300 300 299 298 298 298 298 299 299 300 300 300 300 300
306 304 303 305 307 306 304 302 302 300 300 303 303 301 303 305 301 301 299 296 296 296 297 299 299 299 301 301 304 306 304 302 302 301 301 300 298 298 296 294 293 294 295 293 293 295 298 299 298 297 298 298 297 297 296 296 296 296 296 296 296 297 298 298 298 298 298 301 304 302 299 299 300 299 299 299 298 298 298 298 299 299 300 300 300 300 300 300
305 304 302 303 304 303 303 302 301 301 300 301 302 302 304 307 304 302 298 296 297 296 297 303 306 302 297 297 301 306 307 305 304 303 303 301 300 300 300 297 295 293 294 294 292 293 297 300 298 296 296 297 296 296 296 295 295 296 296 296 296 296 296 297 297 297 297 298 299 299 298 298 298 298 298 298 298 298 298 299 299 300 300 301 300 300 300 300
304 305 303 303 302 301 301 301 301 304 303 302 305 303 303 307 306 301 296 299 304 299 295 304 309 301 295 295 300 306 306 304 302 302 300 300 301 301 301 300 297 294 294 294 292 292 295 299 299 297 297 298 297 297 297 296 296 296 295 295 295 295 296 296 296 296 297 297 297 297 297 297 297 298 298 298 298 298 298 299 300 301 301 300 300 300 300 300
304 305 303 304 303 300 301 301 300 304 305 305 307 304 302 306 304 300 298 299 302 301 298 302 305 299 296 297 301 303 301 299 300 300 299 299 301 301 299 298 298 297 297 295 293 293 295 299 299 297 300 302 300 297 296 295 295 295 296 298 297 295 296 296 295 296 297 297 297 297 298 298 298 298 297 298 298 298 298 299 300 301 301 300 300 300 300 300
303 304 304 306 305 300 300 300 300 304 307 306 305 303 303 304 300 299 302 300 298 300 300 299 300 302 302 302 302 302 300 299 299 299 299 298 298 299 298 297 297 298 298 296 295 294 295 298 299 297 300 305 302 297 294 296 301 304 305 307 304 297 296 297 297 296 296 297 299 300 301 301 298 297 299 299 298 298 299 300 300 300 300 300 300 300 300 300
Wind_Speed
20 19 17 16 15 14 14 16 18 18 17 14 11 9 9 10 11 14 16 17 19 20 22 24 27 28 28 29 29 28 27 25 25 35 39 32 23 17 15 15 18 18 14 12 11 11 10 10 10 9 10 15 18 15 14 14 10 6 5 5 4 2 1 2 3 1 1 2 6 8 10 8 5 11 12 4 11 17 13 17 17 12 14 14 13 16 20 25
19 18 17 16 15 14 13 14 16 18 19 19 16 12 9 8 10 11 12 13 15 16 17 19 21 23 25 27 27 28 28 26 30 40 36 23 18 17 14 15 19 19 17 16 17 18 16 16 14 10 12 20 18 14 16 16 17 10 4 5 3 3 2 2 2 2 2 2 5 8 7 9 7 9 13 6 9 20 16 18 21 17 17 17 15 16 20 25
19 18 18 17 16 15 15 16 17 17 19 21 20 18 13 9 9 10 10 9 9 10 10 11 13 15 17 18 19 22 23 27 36 38 30 21 19 17 15 15 17 18 20 20 20 21 24 26 23 20 27 28 21 22 21 15 14 9 5 5 1 5 4 4 5 6 5 3 5 7 7 8 8 9 10 4 5 13 11 13 18 19 22 21 18 19 22 26
20 19 19 19 19 18 17 18 18 16 18 20 21 20 19 16 11 9 8 7 6 5 5 6 6 6 6 6 9 12 15 24 34 32 24 21 20 18 16 14 15 17 18 19 21 23 26 29 30 32 35 25 23 29 22 14 10 6 5 6 5 7 5 4 6 7 6 5 4 6 7 5 6 10 10 5 3 6 7 9 12 15 19 18 19 21 24 28
21 20 21 22 24 23 21 19 17 15 15 17 19 20 21 21 18 13 10 7 5 3 2 1 3 3 5 5 2 4 6 11 20 24 21 22 20 19 17 15 16 15 14 16 20 25 26 30 34 36 30 17 18 19 15 16 14 8 6 10 9 6 4 3 5 5 5 6 5 4 6 3 3 7 9 7 4 3 9 9 9 11 12 13 16 19 23 27
22 22 22 24 27 28 25 22 18 15 14 15 17 17 19 20 19 18 15 12 10 8 8 9 10 10 5 1 2 1 6 6 12 20 21 21 20 19 18 15 14 11 11 16 21 26 28 34 37 30 21 16 15 12 12 16 13 8 6 9 9 7 6 5 4 4 4 7 6 3 2 2 2 4 4 4 3 4 9 7 8 9 7 9 14 18 21 26
22 23 23 24 26 27 26 25 22 20 18 17 16 15 16 16 17 17 18 18 16 16 18 21 25 26 23 20 19 25 28 18 14 19 20 21 19 17 17 15 12 8 11 20 23 25 28 33 33 26 18 14 14 14 19 23 20 13 4 5 8 7 7 6 4 4 3 6 7 3 2 1 2 1 0 1 1 6 8 5 6 6 6 9 13 17 20 24
21 22 22 23 24 25 25 25 24 24 22 21 19 19 20 20 20 18 17 16 15 15 16 18 20 24 27 27 35 41 34 22 19 20 19 20 18 15 14 15 16 13 17 25 25 26 28 26 23 20 15 8 9 11 13 18 17 11 4 5 7 4 4 3 2 2 2 4 6 4 2 2 2 2 3 3 2 6 8 4 4 5 7 10 13 16 19 23
20 20 21 21 21 22 23 23 22 22 22 22 22 22 23 24 24 22 21 18 16 15 15 15 15 19 23 27 41 40 25 20 21 22 20 18 18 16 13 14 16 15 19 23 23 27 28 25 21 18 15 10 11 8 6 8 6 5 6 7 6 4 3 1 1 1 2 1 6 5 3 3 3 3 4 5 3 6 7 3 3 5 8 10 12 16 19 23
19 20 20 20 21 21 21 21 20 20 20 21 22 22 23 24 25 26 25 25 25 23 21 20 17 18 22 32 45 29 15 20 21 21 22 18 18 17 17 18 17 17 20 20 21 23 22 21 21 21 20 15 14 12 10 9 6 8 10 8 8 7 6 5 3 3 1 3 7 6 5 3 4 2 4 5 4 5 5 2 4 6 8 10 12 16 20 22
19 20 20 20 21 20 20 19 19 19 19 19 20 21 23 25 26 25 25 26 26 25 24 23 23 22 26 40 44 22 14 20 18 19 21 19 19 19 20 21 20 22 23 23 23 21 18 14 12 13 14 13 13 14 14 11 11 13 11 8 6 6 7 8 6 6 3 2 10 8 3 2 3 2 4 5 5 5 4 2 4 6 7 10 13 18 20 21
19 20 20 19 19 18 18 18 18 18 17 18 18 18 21 23 25 25 25 25 24 26 26 26 25 25 33 42 37 23 19 19 16 17 17 17 21 20 20 19 19 22 21 22 22 20 19 13 8 9 8 8 7 7 9 9 11 10 7 4 2 4 5 6 7 9 5 5 14 9 3 4 2 4 6 5 5 4 3 3 4 6 7 11 15 19 19 20
19 19 19 19 18 18 18 17 16 17 17 18 17 17 17 19 22 20 19 18 18 22 25 28 27 28 37 36 28 23 20 18 15 13 14 16 18 18 19 18 18 20 19 20 18 16 18 15 16 20 15 9 5 6 8 7 7 2 1 3 2 5 4 3 6 9 6 6 13 7 1 4 6 8 8 6 6 4 3 4 4 6 8 12 16 18 17 19
19 19 19 19 19 18 17 16 15 14 15 15 16 17 17 19 20 17 16 17 17 18 17 19 23 31 37 26 21 24 19 15 12 9 13 14 13 14 14 15 16 17 18 20 19 18 14 10 16 22 17 12 8 9 7 4 4 1 2 3 2 4 4 5 5 8 7 7 13 6 2 5 7 8 7 8 8 4 3 3 4 6 9 13 16 17 16 18
21 21 20 20 20 20 19 17 15 14 13 13 12 13 15 17 18 15 16 17 19 20 18 18 18 24 30 21 19 21 16 14 13 12 14 11 11 12 12 13 14 13 15 17 17 18 16 11 14 17 13 10 7 5 4 3 4 3 3 3 3 3 4 7 2 8 8 7 11 7 2 5 6 7 9 6 9 4 3 3 4 7 10 13 15 15 16 18
22 21 21 21 21 22 21 20 18 16 14 12 12 13 14 14 13 12 14 15 17 15 16 22 23 25 23 14 15 20 19 19 17 14 14 12 11 11 11 12 12 12 11 12 13 14 16 17 19 20 17 12 6 3 4 4 4 4 3 1 4 3 5 6 0 8 14 7 7 6 1 3 5 10 15 6 8 5 3 3 5 7 10 13 14 14 16 18
20 20 20 20 20 20 19 18 18 19 18 15 14 14 13 12 10 10 11 11 14 15 17 17 17 23 21 12 14 21 24 23 17 13 12 13 12 10 9 7 9 11 9 9 10 11 14 15 13 12 16 14 8 4 4 5 5 4 4 1 3 2 3 5 2 8 18 8 4 5 1 3 7 14 17 7 8 6 2 4 5 7 10 12 13 14 16 18
15 16 17 18 18 17 16 14 14 16 20 22 20 18 16 14 10 9 7 4 5 12 19 18 12 11 14 17 16 17 23 22 18 14 10 11 13 12 11 8 7 7 8 9 8 10 11 9 6 3 7 10 8 7 5 3 2 3 3 2 3 4 2 4 5 8 16 9 3 6 3 7 10 13 14 5 7 6 2 3 5 7 9 11 12 13 15 16
12 14 16 16 15 15 14 13 11 11 14 18 21 21 19 21 22 22 24 21 17 13 10 17 17 7 4 18 17 12 19 23 20 16 10 9 12 11 11 13 11 8 7 7 10 14 9 4 5 3 5 6 5 5 2 3 4 4 3 2 3 5 4 5 5 6 14 9 3 6 5 9 11 11 14 7 6 5 2 2 5 7 8 11 12 12 13 14
12 13 13 12 11 13 13 12 11 9 8 9 9 10 9 14 19 24 33 37 33 24 15 16 19 11 6 18 21 14 16 22 22 19 14 10 8 8 11 13 15 16 10 2 5 12 9 7 6 3 3 6 5 2 2 5 4 4 2 2 3 4 5 6 4 5 15 8 2 5 7 9 8 8 12 7 6 4 1 2 5 6 8 11 11 11 12 12
10 10 8 8 9 11 11 10 9 9 11 10 9 11 9 9 10 12 23 30 28 26 25 24 21 17 13 18 25 20 17 21 23 22 18 15 10 8 13 13 12 14 12 4 2 6 9 9 4 4 5 6 4 2 2 2 1 2 1 1 3 2 5 8 4 4 13 6 4 6 9 10 8 7 9 2 6 3 1 3 6 5 8 10 9 10 10 10
7 6 6 8 9 10 11 10 8 7 9 8 8 14 17 17 16 15 17 18 20 22 23 25 25 23 17 15 21 23 23 23 24 25 22 18 17 12 13 16 11 6 10 6 3 5 8 6 5 6 5 4 3 4 5 4 3 2 2 1 3 2 5 7 2 6 10 3 3 8 8 9 7 6 6 3 3 1 2 4 6 6 8 8 8 9 9 10
6 6 7 8 8 10 10 9 7 6 6 4 5 11 16 17 17 16 15 12 14 19 20 22 25 26 22 16 15 20 26 22 20 27 26 20 18 15 13 13 7 4 9 8 5 5 5 3 7 7 5 4 4 6 8 5 3 2 2 2 3 3 3 4 2 8 10 1 2 7 5 5 6 6 5 4 1 2 2 5 6 7 8 8 7 8 9 10
7 7 7 7 8 8 9 9 8 7 7 6 6 9 11 12 12 12 11 9 8 13 18 18 21 24 23 18 14 13 19 20 19 25 27 22 15 10 10 8 5 4 4 6 8 7 3 4 9 7 6 4 2 7 8 6 5 3 0 2 2 3 1 4 5 9 7 0 2 6 3 3 5 6 5 4 4 4 5 7 8 8 8 8 7 7 9 10
6 6 6 7 7 7 8 8 9 8 8 8 7 7 7 6 6 5 5 6 4 9 14 13 16 20 21 21 15 6 10 18 22 25 24 22 15 6 5 6 5 4 1 2 7 6 2 5 8 5 6 6 4 4 4 3 5 5 2 2 2 3 3 4 7 7 4 3 5 7 5 4 5 5 6 5 5 6 8 10 11 9 8 8 8 7 8 10
6 6 7 7 7 7 7 7 9 8 8 7 6 5 5 2 2 3 2 5 4 8 11 10 10 14 18 22 17 3 5 11 17 25 24 20 16 6 4 5 5 4 1 3 4 3 1 6 7 5 4 6 5 3 0 2 5 5 2 2 2 2 3 4 5 3 3 1 4 5 4 3 5 5 6 5 6 8 9 11 12 10 9 9 8 8 8 10
6 6 6 7 7 8 7 7 9 8 6 6 5 4 3 2 3 3 1 5 5 6 8 8 7 11 14 19 18 5 1 9 11 22 25 17 14 10 5 3 4 4 2 2 4 2 2 6 8 6 5 6 6 4 2 2 4 4 1 3 2 6 6 2 2 2 0 1 4 5 3 2 3 5 6 5 6 8 7 9 13 11 7 8 8 8 8 9
5 5 5 6 6 7 7 8 8 7 7 5 5 4 2 1 3 3 4 5 4 5 5 6 6 11 10 11 19 13 5 9 8 15 24 18 13 12 9 4 2 3 5 4 3 2 2 5 6 5 6 6 4 4 3 1 1 5 2 2 5 5 2 2 3 1 1 2 4 6 3 2 3 6 5 4 3 6 7 7 10 11 8 7 8 9 9 10
5 4 5 5 6 7 7 9 8 7 7 5 4 2 1 2 3 2 6 3 3 4 4 6 6 12 12 7 15 17 11 12 9 11 21 21 14 8 6 6 4 1 6 8 4 0 2 2 2 2 4 3 4 6 5 3 3 8 4 2 2 2 3 3 3 1 2 5 2 6 4 3 3 5 5 5 3 5 6 5 7 8 7 7 8 9 11 12
5 5 6 6 7 8 9 10 11 9 7 5 3 1 2 3 3 4 6 0 2 4 4 6 4 10 15 8 10 16 11 10 12 12 18 23 23 17 7 5 7 2 3 7 4 1 1 0 1 1 2 3 6 8 5 4 5 11 5 4 4 4 4 3 2 2 4 4 3 5 2 2 2 5 3 2 3 4 4 5 6 7 7 8 8 10 11 13
6 6 7 7 7 9 10 11 12 10 8 6 3 1 3 2 4 7 3 2 2 4 5 5 4 7 11 5 5 12 8 8 12 12 11 15 22 23 12 4 7 5 3 5 4 2 2 1 1 1 1 4 5 5 4 2 4 8 5 3 3 3 3 4 4 4 5 3 5 4 2 1 1 4 3 4 6 5 4 4 7 7 7 8 9 10 11 13
7 7 7 8 8 10 11 12 13 10 8 6 3 1 3 3 5 3 0 3 2 3 3 2 4 5 6 4 3 7 4 5 10 9 5 5 8 11 9 3 3 4 5 5 4 4 2 1 3 2 1 5 4 3 5 4 5 6 4 4 4 3 4 4 4 3 2 4 3 1 3 1 3 5 5 6 7 5 4 5 7 8 7 8 10 10 12 13
7 7 8 9 9 10 11 12 14 12 8 5 1 1 5 6 3 1 2 2 0 2 1 2 4 4 4 5 4 5 3 3 8 7 3 3 4 3 5 8 6 3 2 2 3 6 3 3 6 3 1 6 6 3 3 4 5 6 4 3 4 3 5 4 4 3 2 5 4 1 2 1 3 4 5 6 8 7 5 6 6 7 8 8 9 10 12 13
6 7 8 9 9 10 12 13 14 13 10 5 1 3 7 5 1 1 2 3 1 2 1 1 4 4 3 3 2 3 2 2 5 7 5 4 5 4 5 10 11 5 1 2 3 4 3 4 5 3 2 6 5 1 1 1 3 4 1 2 4 3 3 1 2 1 3 6 6 4 1 1 4 3 4 8 11 6 3 5 6 8 8 8 9 11 12 14
6 7 7 8 9 9 12 13 14 14 9 3 4 6 6 2 3 2 2 4 1 2 2 2 3 4 4 3 2 1 1 2 3 5 5 4 3 3 3 5 8 5 2 3 2 1 1 4 4 1 3 3 2 2 1 3 1 3 1 4 2 2 3 1 2 4 2 3 5 4 1 3 4 3 5 11 10 4 4 5 7 9 9 9 10 12 13 14
5 6 7 8 9 9 12 12 13 14 8 2 6 6 3 2 2 3 2 1 0 0 1 3 4 5 4 4 3 3 1 2 2 3 3 3 1 1 1 2 4 5 3 2 1 2 2 4 4 2 2 0 3 3 2 2 1 2 3 2 1 2 5 2 2 2 3 2 4 3 3 6 4 1 4 9 9 8 8 7 8 11 11 10 11 12 11 12
4 5 6 8 9 10 11 11 12 12 7 4 7 3 2 1 1 2 0 1 1 1 3 1 2 3 2 3 4 6 4 2 2 4 2 2 1 0 1 1 2 3 3 2 0 0 1 5 5 2 1 2 2 3 4 3 2 3 2 1 1 2 3 3 1 3 5 2 4 3 4 6 3 1 5 8 8 7 8 7 10 13 11 10 12 12 11 11
4 4 6 9 10 10 10 10 11 8 6 8 6 2 2 1 1 1 1 1 1 1 4 3 0 0 1 1 3 5 5 3 3 4 1 1 1 1 1 1 1 2 3 2 0 1 0 3 5 1 1 4 3 2 3 4 3 4 3 3 2 3 2 2 1 1 3 3 4 5 5 4 2 3 4 6 4 5 6 6 10 12 11 12 15 16 14 13
3 2 6 10 10 10 10 9 8 5 7 8 3 2 1 1 1 1 0 1 1 2 3 2 1 1 2 2 1 4 3 2 2 2 1 1 1 0 1 1 1 3 4 2 1 1 1 1 4 4 2 4 4 3 2 4 4 4 3 1 1 3 1 1 0 1 1 1 3 4 4 4 4 5 3 5 6 6 5 5 7 10 13 17 20 20 16 14
4 2 5 9 9 10 9 7 7 7 7 4 3 3 1 1 2 2 1 1 1 1 1 2 2 2 1 2 1 2 2 1 1 1 0 1 1 1 1 2 1 4 4 2 1 1 2 1 3 5 4 3 2 2 0 1 2 2 3 3 3 2 1 1 1 1 2 2 1 3 5 6 5 4 4 7 6 7 5 4 9 11 17 22 22 19 15 15
4 2 4 8 8 9 7 6 9 9 6 3 2 2 1 2 4 3 2 2 2 2 2 2 3 2 2 1 1 1 1 2 1 1 1 1 0 1 1 2 1 3 4 2 2 2 1 1 2 5 5 3 1 2 2 3 2 2 1 2 2 1 2 2 2 3 1 2 3 1 4 8 6 3 5 6 5 7 6 8 14 16 21 24 21 19 16 15
4 2 4 7 7 6 6 7 9 7 4 3 3 3 2 3 4 3 3 3 2 2 3 3 2 2 2 1 0 1 0 1 1 1 1 1 1 1 2 2 1 1 2 1 1 0 1 2 0 4 4 4 4 2 2 2 3 3 1 2 3 2 3 3 2 3 1 1 1 2 2 7 6 4 5 5 4 5 8 14 17 19 24 24 21 20 17 15
4 3 3 5 4 4 5 6 6 5 3 3 4 4 3 2 2 3 3 2 2 2 2 2 1 2 2 1 1 1 1 1 1 1 1 2 2 1 3 2 1 1 1 1 1 0 1 2 1 4 4 4 4 3 1 1 2 3 0 1 2 0 2 4 4 2 1 3 1 2 2 7 6 6 6 6 7 10 15 19 19 21 26 25 21 21 18 16
4 4 4 6 3 1 3 3 2 1 1 2 3 3 3 2 2 2 2 1 2 2 2 1 1 2 2 2 3 2 1 0 1 1 1 2 2 1 3 2 2 2 1 1 0 1 1 1 2 3 5 6 6 5 5 5 2 1 2 1 2 2 4 2 0 2 1 4 5 3 4 7 5 3 4 8 13 17 22 24 23 23 26 24 22 21 19 17
2 2 5 8 5 2 4 5 7 6 3 2 4 2 2 3 2 2 1 1 2 3 3 2 3 4 3 3 3 1 0 1 1 1 1 1 2 2 2 2 2 3 2 2 1 1 1 1 1 2 2 3 4 4 3 3 3 2 1 1 2 2 3 0 1 2 2 4 5 5 6 6 7 7 7 9 12 16 23 29 29 27 27 25 23 21 18 17
2 2 2 6 7 7 9 7 10 11 6 4 4 1 1 2 1 0 1 1 1 3 3 4 5 4 2 2 2 2 1 1 1 1 1 2 2 1 2 2 3 4 3 2 1 1 1 1 3 5 5 5 6 6 3 2 3 6 4 3 5 3 3 3 3 3 4 3 3 8 9 9 15 14 10 10 10 12 20 27 29 30 29 26 22 19 17 16
2 1 1 2 5 8 11 8 8 11 8 7 4 3 4 2 1 1 1 1 1 2 2 3 4 4 2 2 2 0 2 2 2 1 2 3 2 1 2 2 3 4 3 2 1 2 3 2 4 6 8 9 9 10 7 4 6 9 8 7 7 5 5 6 6 6 4 4 4 9 7 8 15 15 10 11 12 12 18 24 28 30 30 26 21 18 16 15
2 2 2 3 2 2 5 4 6 11 9 6 3 4 5 3 2 3 2 2 1 2 1 0 3 4 5 4 3 1 1 2 1 2 1 2 2 2 1 1 3 4 4 3 2 2 3 3 4 4 7 10 10 11 10 7 8 9 9 11 9 7 9 10 11 8 6 6 8 5 3 8 15 15 13 15 18 18 23 28 30 30 28 25 22 20 17 17
4 5 4 5 3 4 6 5 9 13 9 4 3 3 5 6 5 4 2 3 0 2 2 1 5 5 7 6 3 3 2 0 2 4 2 2 2 1 0 1 2 4 3 3 1 1 2 3 3 1 6 11 11 12 10 7 8 8 10 12 11 10 11 12 13 10 10 13 14 11 11 15 18 17 18 24 29 28 28 29 28 28 28 25 23 21 19 18
4 4 5 7 7 8 9 7 8 8 5 2 2 3 5 6 6 4 4 6 2 1 4 4 6 4 8 7 4 2 6 6 3 3 4 2 2 1 2 2 2 3 1 1 1 1 1 2 2 2 5 9 7 6 5 5 7 10 12 12 11 10 10 11 12 9 9 13 15 14 14 16 20 22 21 25 28 25 24 26 26 26 26 25 24 22 20 19
4 4 6 8 6 5 5 4 4 4 2 1 2 4 4 6 8 7 5 6 6 5 8 9 5 3 4 4 5 7 8 6 5 5 4 4 4 3 2 2 3 3 1 1 1 1 2 1 3 5 4 7 4 4 7 7 7 11 15 14 11 8 7 8 9 8 10 10 8 8 9 10 15 17 15 17 21 21 22 25 26 26 25 25 26 26 23 20
5 5 7 6 3 3 5 3 2 2 2 2 3 6 5 5 10 10 4 4 8 7 7 10 9 6 3 3 7 9 7 5 6 7 6 7 9 9 7 5 2 3 3 3 1 0 2 1 2 3 2 7 5 7 11 9 5 4 8 8 8 7 5 5 5 8 11 9 5 5 8 7 7 9 9 12 18 20 22 24 24 26 27 26 27 26 24 21
Wind_Direction
74 74 76 79 85 93 101 99 90 82 80 89 105 122 129 127 121 112 107 103 100 98 95 94 93 92 89 83 78 74 69 73 75 65 57 41 29 31 29 30 33 31 26 32 47 55 83 102 106 116 107 84 69 63 62 56 52 61 73 74 89 105 85 149 182 193 130 308 335 12 25 25 14 12 13 351 17 22 19 18 13 13 22 12 351 343 335 331
71 72 74 75 79 87 98 107 99 83 75 76 81 90 112 140 144 129 117 111 107 102 99 98 97 94 91 85 77 71 65 68 71 59 49 40 39 41 38 42 42 40 42 49 60 67 82 92 100 127 104 74 58 68 76 56 51 61 95 86 100 176 150 117 125 48 42 337 343 12 31 41 28 4 10 6 12 19 14 359 359 358 2 6 353 340 335 333
72 72 74 72 72 81 93 106 104 87 74 72 73 75 85 112 142 141 128 120 114 107 105 104 105 103 97 87 74 65 56 57 57 45 38 41 43 43 42 45 46 43 45 53 64 73 81 85 95 103 88 72 55 68 71 50 50 51 79 82 142 174 123 81 72 57 53 29 13 8 19 54 44 24 20 11 11 21 11 343 347 347 348 354 346 338 335 335
74 76 76 71 70 80 93 104 105 91 76 71 71 72 76 86 107 129 129 125 117 105 104 107 118 122 103 75 71 58 40 44 38 25 28 40 41 45 44 43 46 41 45 60 72 79 85 87 93 90 81 67 52 64 55 37 63 43 60 112 164 155 107 75 73 64 58 38 32 6 7 47 46 37 37 39 39 2 346 340 337 332 338 341 333 332 332 333
77 80 79 75 75 82 90 99 101 89 76 71 72 73 73 76 84 96 107 112 104 84 62 8 283 265 260 266 255 304 345 28 21 17 30 37 40 45 44 45 49 52 60 74 79 83 89 89 88 80 72 60 47 57 43 45 80 68 66 117 135 134 111 110 97 77 65 41 33 14 3 12 28 45 48 51 84 329 333 340 337 329 329 329 324 325 328 332
80 83 84 81 81 82 84 88 88 82 75 72 74 73 71 72 77 85 93 95 91 80 66 65 64 62 62 91 207 242 82 70 11 21 32 35 40 42 43 46 52 61 71 79 79 80 82 81 81 75 68 64 51 56 53 57 87 90 73 106 114 110 113 131 114 99 80 39 24 9 339 336 41 68 59 52 77 350 344 342 341 333 313 315 319 324 330 334
81 83 85 85 83 83 82 81 80 79 78 77 77 73 72 73 78 86 91 92 89 81 71 71 76 78 82 93 101 92 81 69 34 33 36 38 43 45 48 51 58 66 72 75 74 76 77 76 77 77 76 72 63 69 72 72 83 92 96 114 111 104 104 119 110 114 105 45 31 45 136 287 18 56 278 339 345 351 4 3 340 321 293 307 317 328 336 337
82 83 84 83 83 83 82 82 80 79 80 79 79 79 79 79 82 87 88 89 84 77 72 72 81 90 96 100 93 79 61 47 44 44 42 44 47 54 61 65 68 69 71 72 71 74 75 71 71 74 76 74 83 86 82 76 67 71 123 139 126 116 102 112 94 112 142 57 31 40 104 247 279 267 249 249 302 355 12 12 333 315 302 315 329 336 338 338
81 81 82 82 83 83 82 82 81 80 80 79 79 79 80 80 82 84 82 81 76 77 80 77 84 97 101 95 84 71 42 39 51 49 50 52 53 61 73 73 69 69 73 73 72 74 72 69 71 80 87 86 85 80 77 81 53 71 125 137 128 112 102 94 336 3 207 306 2 3 333 275 226 251 254 242 287 348 7 3 317 321 322 334 343 343 342 340
80 80 82 83 83 84 83 80 78 77 78 79 78 78 80 82 82 81 81 80 77 77 80 84 91 97 95 81 76 69 35 50 59 55 57 58 63 68 71 71 71 72 73 71 67 68 71 76 80 84 87 81 75 66 65 86 121 129 122 119 105 95 79 51 25 14 294 278 345 340 316 293 196 206 268 249 275 330 354 343 322 328 337 349 347 347 345 341
79 80 83 85 85 85 82 79 78 79 80 79 79 81 82 81 81 79 79 79 80 82 83 87 90 88 85 72 67 61 46 58 62 59 59 60 67 69 67 68 70 71 69 68 65 62 67 80 91 85 81 84 81 73 74 94 129 127 114 108 83 79 68 44 42 18 354 335 347 337 335 358 172 195 277 267 273 307 343 326 333 340 341 352 351 349 346 343
80 83 84 85 85 83 80 79 80 81 81 79 79 83 83 82 84 82 81 82 82 84 80 79 79 80 80 67 54 50 51 55 59 57 57 59 62 64 66 67 68 69 69 69 67 64 62 64 84 90 92 108 96 73 86 113 127 121 103 105 347 19 39 15 24 8 358 8 350 348 22 2 250 250 280 281 272 279 336 333 333 343 342 351 351 349 348 348
81 84 85 85 84 81 79 79 80 81 78 79 80 81 86 86 85 84 85 85 79 79 77 73 70 70 74 62 43 49 52 48 55 56 58 59 60 63 66 67 69 69 69 69 68 68 67 68 82 90 92 92 92 91 103 117 117 135 28 83 348 3 5 344 19 3 5 5 349 358 17 310 267 274 281 264 263 269 318 332 326 338 345 350 351 351 354 357
84 85 85 84 82 79 76 75 75 78 80 82 81 80 86 87 87 88 84 79 73 71 71 71 65 62 68 63 44 49 48 47 56 60 62 59 59 64 67 70 71 70 72 72 70 68 67 76 84 84 79 71 92 106 95 77 65 327 324 40 29 24 335 311 12 15 21 349 345 18 160 278 277 300 310 249 243 265 295 310 318 338 349 351 354 355 359 4
88 88 87 84 82 79 76 75 74 78 83 85 85 83 84 88 88 82 73 71 70 69 67 69 69 67 67 58 42 46 48 55 55 49 50 49 53 60 65 70 70 71 73 73 72 68 66 82 83 69 55 57 87 96 44 12 21 20 23 348 344 34 318 308 7 38 21 320 340 28 182 284 273 309 345 256 233 252 273 292 325 343 355 355 357 359 360 4
90 89 87 85 83 81 77 73 73 76 83 88 91 89 87 90 86 76 74 72 70 70 69 67 66 69 66 42 33 41 43 44 40 39 39 38 44 47 56 67 71 72 75 75 73 70 69 76 72 56 46 50 53 56 47 23 354 9 46 307 311 3 335 323 357 32 14 332 335 23 212 292 279 309 336 294 230 240 253 304 338 350 358 357 357 357 359 1
91 89 88 87 84 82 76 72 73 75 81 88 91 90 88 88 88 89 83 71 71 65 63 67 64 65 60 31 25 31 31 33 31 37 39 37 41 44 55 68 76 73 75 78 70 69 69 67 69 54 46 44 25 36 69 23 342 338 19 359 291 323 335 334 305 6 10 354 327 6 237 263 279 301 323 300 227 234 262 327 345 357 358 357 353 351 356 358
90 89 90 90 86 78 70 70 75 79 82 86 88 89 88 84 85 89 73 61 86 64 55 54 54 69 48 20 19 20 26 32 28 31 30 32 41 44 47 50 70 81 71 67 48 47 57 58 84 94 39 34 18 39 63 18 302 279 337 341 317 321 306 321 315 354 3 352 335 5 337 299 300 306 326 316 217 229 297 337 350 359 357 354 349 347 352 355
87 93 95 91 81 66 59 62 73 87 92 91 90 87 87 82 76 70 67 69 71 65 48 38 45 93 48 16 22 25 32 34 29 31 28 29 40 41 48 53 63 81 74 55 29 32 44 54 63 47 12 4 356 42 91 220 224 232 258 258 303 316 292 289 292 354 1 349 356 14 329 308 313 313 332 334 206 216 306 337 350 353 354 350 345 344 349 352
89 97 97 83 61 46 45 53 67 81 96 107 99 85 82 74 68 60 60 64 65 66 66 52 55 81 61 25 31 38 40 38 34 35 33 32 39 42 49 53 59 61 50 21 15 27 46 62 46 5 312 304 310 340 240 242 230 209 194 230 297 307 305 302 273 5 12 360 302 347 321 310 314 305 328 338 189 196 241 328 344 344 349 346 340 342 344 346
89 91 80 54 33 28 32 45 62 76 86 92 81 75 76 71 81 75 64 64 63 62 58 55 55 56 47 32 33 36 41 44 41 39 36 35 44 47 40 39 50 42 14 360 68 26 48 61 19 281 263 277 304 333 317 340 155 167 163 265 333 311 298 309 269 348 15 19 270 329 335 321 321 315 334 18 175 199 266 324 340 336 341 340 336 342 341 342
76 63 44 32 25 27 31 39 59 84 94 85 56 72 83 85 94 94 83 74 61 55 51 47 48 45 43 38 34 34 38 40 34 32 33 35 47 52 41 42 51 24 352 9 65 17 45 56 327 296 287 301 354 17 9 35 105 95 41 40 340 311 293 307 298 341 359 39 276 322 332 315 309 318 351 73 166 262 319 322 332 330 335 335 334 342 345 344
56 44 37 31 31 35 33 41 59 72 83 74 45 77 91 92 94 90 88 89 64 49 41 39 39 35 35 34 29 32 40 38 18 18 24 28 41 48 46 48 50 21 8 27 61 45 56 21 321 320 334 348 356 6 10 17 59 54 37 61 322 327 341 310 329 342 340 104 260 307 306 300 317 334 0 33 4 313 310 309 313 319 325 328 333 342 345 346
51 44 40 33 31 32 33 41 52 54 55 59 61 81 98 98 101 99 87 94 77 41 31 32 30 28 26 19 15 29 43 40 18 12 18 22 32 42 45 51 54 46 26 45 70 79 108 302 322 335 13 44 13 2 17 16 6 339 245 93 322 317 305 259 291 327 331 343 328 341 354 314 339 349 330 334 335 304 296 297 300 306 311 317 329 339 341 345
48 44 39 33 30 29 33 37 42 47 45 52 59 70 96 108 117 118 85 86 72 14 17 23 21 21 18 9 10 39 52 39 24 11 12 20 26 41 50 44 48 43 327 93 73 75 83 327 341 0 20 37 55 24 24 20 357 335 267 192 247 264 243 277 307 327 10 19 350 26 38 305 325 342 306 313 330 309 304 302 298 296 295 305 323 333 335 339
44 43 39 35 32 31 37 35 34 36 36 47 51 56 81 101 139 151 97 72 38 343 360 12 10 13 13 6 3 44 66 27 20 14 12 18 21 39 56 25 43 44 246 139 88 82 3 353 22 61 32 23 49 52 47 62 21 345 302 166 155 284 293 320 333 355 58 340 323 43 82 269 319 328 293 311 325 311 318 320 316 306 287 297 319 328 329 332
44 45 40 36 34 34 37 34 30 30 34 43 39 51 82 70 125 156 61 49 19 337 356 3 2 8 9 9 13 61 64 344 5 15 12 14 19 43 62 359 39 31 333 122 68 22 330 358 17 36 32 24 27 8 304 66 25 313 267 86 352 309 305 325 48 47 94 262 330 14 85 183 297 290 279 316 329 321 333 335 336 337 307 301 318 325 329 329
46 46 42 37 33 31 35 30 22 23 28 29 30 52 75 56 164 168 83 73 350 334 358 354 3 10 8 22 33 60 58 358 11 12 14 21 21 41 58 29 70 13 3 83 95 350 10 14 2 6 22 18 357 324 285 130 62 265 232 45 303 292 292 120 96 54 299 47 356 325 16 78 275 278 299 348 357 330 333 322 330 344 336 319 324 327 331 328
44 41 39 35 30 28 29 24 16 14 17 18 28 42 53 74 155 117 73 100 320 336 354 353 358 0 2 31 37 41 45 31 28 10 24 37 30 42 70 41 68 84 29 65 111 300 24 34 355 45 51 2 296 296 292 169 240 286 304 48 350 16 65 88 90 76 24 50 344 289 349 40 285 288 322 8 16 319 321 308 312 338 344 332 330 333 332 328
39 36 34 28 25 22 20 17 11 6 5 6 15 54 96 83 107 69 49 78 324 338 329 354 351 346 359 20 23 19 29 33 20 15 30 39 39 48 77 41 37 83 43 50 85 177 296 290 337 72 86 296 287 304 302 202 270 314 345 54 43 32 39 54 57 73 59 22 280 262 317 51 306 291 285 331 314 277 288 309 313 330 345 339 334 337 336 331
35 32 29 25 23 18 17 15 8 3 2 359 355 57 122 70 69 87 71 267 306 340 342 3 352 354 13 41 11 358 7 17 11 18 22 24 32 37 42 23 10 29 26 17 36 20 7 57 345 323 313 309 295 314 327 241 311 347 3 18 31 9 11 24 357 31 60 336 273 248 295 53 242 281 284 291 288 268 258 289 301 310 337 346 337 335 337 333
34 29 25 24 22 16 16 13 10 8 360 359 3 51 127 46 31 86 275 306 315 341 357 339 334 360 11 27 13 344 348 1 3 21 29 17 29 30 39 42 341 11 15 351 355 360 3 214 319 315 344 356 351 339 350 343 350 9 3 13 52 18 7 23 344 2 38 282 258 267 348 350 222 258 280 284 286 294 301 301 298 300 320 343 342 337 334 332
34 30 26 21 17 13 12 9 9 9 359 358 22 77 86 74 46 215 277 326 358 325 335 283 321 346 354 11 6 339 354 349 350 9 19 42 54 30 40 37 17 23 10 333 341 352 347 298 335 5 20 15 35 33 351 337 341 352 344 19 67 51 27 8 322 335 319 282 272 327 353 296 289 279 244 264 289 299 328 351 339 319 320 332 338 336 332 332
36 32 25 15 11 8 8 5 2 2 360 11 66 59 63 74 160 190 282 267 233 325 337 309 326 347 27 44 329 315 22 358 348 12 4 24 42 7 6 16 17 36 92 40 26 12 12 308 331 31 341 353 38 68 224 222 312 310 279 78 78 90 79 9 292 260 293 298 301 322 4 223 303 278 239 306 317 300 319 359 354 339 332 332 331 331 333 334
39 34 22 13 13 8 6 5 360 0 359 15 56 59 77 126 211 153 215 249 266 332 320 353 31 33 9 346 306 324 63 315 353 35 17 25 58 10 355 344 358 22 62 42 12 3 30 271 272 356 309 323 22 321 217 133 335 292 123 71 57 149 135 121 223 212 239 319 300 307 268 241 271 256 294 338 353 7 352 344 350 344 330 324 326 330 334 334
37 32 23 16 16 13 9 3 1 4 359 59 63 57 125 189 202 152 165 250 72 60 319 340 36 49 350 313 333 1 8 280 360 49 21 23 102 29 4 288 333 14 48 67 3 350 3 279 281 9 325 21 55 339 340 66 331 325 53 50 280 169 128 104 296 296 54 40 280 296 302 291 319 341 319 352 14 11 356 357 359 345 325 318 326 333 337 337
35 32 26 22 20 17 10 7 8 8 7 77 78 79 194 195 169 169 85 32 171 131 88 54 18 34 344 311 324 333 337 310 1 46 34 1 52 129 3 318 340 20 45 79 72 317 320 283 303 32 350 313 21 357 7 39 39 28 49 189 199 69 86 94 3 345 27 4 281 318 306 298 342 335 319 359 10 345 343 358 351 339 331 328 331 333 336 339
29 28 23 20 19 15 11 11 10 11 42 72 80 118 174 156 190 206 359 63 178 83 82 110 99 75 200 254 314 316 343 357 3 38 42 339 43 126 105 3 339 7 19 39 34 286 263 293 306 341 268 304 329 42 17 4 30 69 118 174 113 60 14 23 49 7 6 320 294 306 287 277 250 232 314 344 320 290 308 336 341 342 348 341 330 326 325 334
18 29 24 15 13 13 14 14 7 21 68 75 98 164 144 161 161 127 77 80 105 67 81 149 156 74 166 172 288 302 340 14 8 34 55 33 37 153 123 82 326 330 348 21 103 282 8 329 294 297 295 309 344 44 20 327 347 57 79 359 38 112 147 329 15 142 129 289 303 314 302 282 237 210 258 278 246 239 270 320 337 345 351 343 335 330 322 326
10 41 22 9 10 11 10 18 28 49 75 85 150 165 126 159 141 103 99 73 56 70 88 185 143 95 197 214 269 305 356 18 353 35 30 21 30 5 73 91 319 316 326 1 80 338 7 70 265 296 333 351 356 4 290 286 343 15 32 22 16 27 52 20 334 143 133 162 278 319 304 283 257 219 230 245 236 220 227 328 341 336 340 340 341 340 325 321
14 38 9 4 12 10 13 43 46 53 84 97 114 123 103 137 133 104 89 89 84 84 98 137 127 129 161 176 276 269 336 349 337 5 322 308 81 11 66 113 36 331 328 356 42 15 6 86 259 299 339 358 283 261 191 168 168 166 132 121 117 37 60 65 329 310 62 159 180 196 282 278 270 233 214 225 239 235 241 323 333 328 332 334 341 344 330 321
36 56 3 3 10 8 31 59 43 44 95 99 77 102 115 124 130 116 102 101 101 89 88 102 95 102 139 153 223 177 144 339 327 345 303 244 215 197 149 124 99 357 359 349 347 26 134 95 306 273 283 290 290 292 133 160 162 140 143 161 140 103 104 119 249 276 325 255 178 122 263 268 266 254 245 248 275 286 294 315 321 323 328 333 341 343 334 326
60 73 12 5 8 17 54 66 35 28 66 88 86 102 109 107 120 133 127 110 118 121 91 87 88 93 145 184 117 132 197 215 210 252 259 249 260 193 162 149 163 134 63 316 281 153 110 64 352 284 289 315 321 329 43 43 97 118 278 181 149 182 138 151 185 190 249 263 181 82 274 266 273 276 269 277 306 316 312 315 319 321 327 334 339 339 336 332
76 68 38 25 10 353 99 107 108 61 79 96 81 79 79 68 66 104 140 126 118 140 124 119 167 135 133 125 111 153 215 121 207 256 233 216 236 187 172 179 186 158 121 182 141 34 285 337 26 345 337 343 349 351 342 345 20 173 257 222 179 131 104 99 85 85 293 239 163 137 253 257 268 287 299 306 315 317 315 319 322 319 323 330 333 336 337 335
97 78 45 36 28 105 122 131 143 140 149 120 97 96 81 66 62 67 84 106 108 128 128 129 151 135 119 99 82 67 6 63 220 279 355 262 245 191 172 187 188 157 137 158 144 117 219 219 114 82 25 315 313 316 308 318 318 292 293 183 191 124 105 117 12 89 246 236 159 170 237 265 284 290 304 312 317 319 315 318 320 319 321 325 327 331 334 333
113 114 46 36 41 79 95 116 135 135 151 148 117 144 134 93 168 150 64 57 94 110 115 124 143 134 106 100 72 15 314 327 349 24 280 262 261 207 177 169 160 154 147 161 153 89 106 239 210 184 195 223 250 264 272 10 307 282 277 237 228 241 213 172 140 164 202 196 200 226 242 282 291 288 301 313 311 310 308 311 315 317 320 322 321 322 324 331
100 94 34 50 49 71 80 92 122 130 149 156 138 162 156 131 224 185 177 250 175 134 118 119 153 166 174 165 133 317 284 330 358 316 241 242 266 295 212 172 147 156 162 174 193 96 86 282 242 206 226 244 254 269 287 316 282 266 269 258 232 220 197 175 194 209 163 131 249 247 228 253 274 279 293 301 298 300 303 305 308 310 313 315 316 315 316 326
106 128 119 105 89 82 79 83 122 124 130 139 129 149 149 142 179 182 200 223 205 189 153 40 229 203 187 176 140 138 254 343 317 250 236 234 271 340 352 159 147 158 155 154 185 112 110 258 248 202 250 266 264 267 269 266 262 256 258 260 242 211 198 205 220 211 167 196 244 255 223 245 268 281 286 286 289 293 297 300 304 306 309 313 315 313 310 318
116 125 118 109 115 124 112 123 131 121 118 111 100 145 163 168 184 194 171 128 16 259 179 214 262 221 183 181 136 126 195 218 296 263 220 197 261 309 327 281 146 156 151 135 141 94 121 257 273 236 276 275 265 265 262 249 261 260 248 248 243 224 211 218 231 219 208 236 252 266 276 271 270 272 274 281 287 290 293 297 302 307 311 314 316 313 306 310
134 135 136 118 105 106 113 127 131 116 100 86 114 180 178 171 181 194 178 159 161 235 180 207 259 214 175 175 152 186 213 188 196 242 188 165 297 277 212 243 158 148 171 130 113 73 134 275 328 38 310 287 274 284 283 246 258 270 265 256 246 238 225 225 236 226 219 245 254 258 269 273 269 269 273 280 286 290 291 295 302 308 313 314 315 315 308 307
150 151 149 130 106 105 123 137 134 112 97 134 168 178 183 197 192 173 172 196 195 181 188 200 200 145 140 166 194 239 242 214 221 245 214 214 256 238 226 238 151 142 204 163 132 117 147 279 353 46 346 290 281 334 309 279 265 271 276 267 241 226 219 217 222 206 201 221 236 248 257 256 265 277 286 286 288 290 289 294 302 307 311 312 311 313 310 305
146 149 156 144 113 143 155 145 110 113 181 217 178 173 194 221 196 170 153 228 217 204 208 201 174 130 111 194 224 246 259 252 258 269 264 255 250 244 251 258 198 159 172 153 112 140 143 126 2 43 324 277 290 319 308 306 315 279 266 245 205 194 207 224 232 215 204 196 179 215 238 242 271 298 304 294 292 292 293 298 303 304 306 309 309 311 308 301